{"data":{"norad_id":58584,"intl_designator":"2023-198A","name":"ARKTIKA-M 2","alt_names":[],"object_type":"PAYLOAD","status":"ACTIVE","operator":null,"country":"CIS","launch_date":"2023-12-16","launch_site_code":"TYMSC","launch_vehicle":null,"mission":null,"orbit_class":"UNKNOWN","rcs_meters":null,"size_class":null,"mass_kg":null,"dimensions":null,"purposes":["earth_obs"],"wikipedia_slug":null,"has_3d_model":false,"image_url":null,"decayed_at":null,"tle_current":{"epoch":"2026-05-24T08:00:11.916000Z","epoch_age_seconds":126579,"freshness":"FRESH","line1":"1 58584U 23198A   26144.33347125  .00000154  00000+0  00000+0 0  9996","line2":"2 58584  63.2201 157.0242 6895752 267.5045  18.7884  2.00593321 17849","mean_motion":2.00593321,"eccentricity":0.6895752,"inclination_deg":63.2201,"raan_deg":157.0242,"arg_perigee_deg":267.5045,"mean_anomaly_deg":18.7884,"bstar":0,"rev_number":1784,"period_min":717.87036219416,"perigee_km":1866.0393335168,"apogee_km":38493.135776972,"semimajor_km":26557.724555244,"source":"CELESTRAK","updated_at":"2026-05-25T13:38:12.256815Z"}}}